�������l�o���
Date,Time,MP-1(��Sv/h),MP-2(��Sv/h),MP-3(��Sv/h),MP-4(��Sv/h),MP-5(��Sv/h),MP-6(��Sv/h),MP-7(��Sv/h),MP-8(��Sv/h),����,����(m/s),���J
2017/01/12,00:00,1.072,1.782,1.163,2.018,1.393,0.559,1.021,0.951,�k��,3.0,��
2017/01/12,00:10,1.073,1.783,1.163,2.024,1.394,0.558,1.020,0.951,�k�k��,1.7,��
2017/01/12,00:20,1.073,1.783,1.163,2.020,1.394,0.557,1.023,0.952,�k�k��,1.7,��
2017/01/12,00:30,1.070,1.785,1.162,2.022,1.397,0.557,1.024,0.951,�k,2.0,��
2017/01/12,00:40,1.070,1.785,1.163,2.021,1.395,0.558,1.023,0.951,�k�k��,1.9,��
2017/01/12,00:50,1.073,1.783,1.162,2.021,1.396,0.557,1.022,0.950,�k,1.9,��
2017/01/12,01:00,1.071,1.782,1.163,2.024,1.394,0.556,1.021,0.950,�k��,1.4,��
2017/01/12,01:10,1.072,1.784,1.163,2.020,1.395,0.559,1.023,0.951,�k��,0.9,��
2017/01/12,01:20,1.070,1.782,1.162,2.019,1.398,0.558,1.021,0.950,�k�k��,0.8,��
2017/01/12,01:30,1.071,1.780,1.164,2.019,1.396,0.559,1.023,0.952,�k�k��,0.6,��
2017/01/12,01:40,1.071,1.780,1.163,2.021,1.393,0.558,1.023,0.948,�k��,0.9,��
2017/01/12,01:50,1.074,1.780,1.160,2.022,1.396,0.558,1.021,0.951,���쓌,0.6,��
2017/01/12,02:00,1.072,1.780,1.164,2.021,1.394,0.557,1.022,0.950,�쓌,1.2,��
2017/01/12,02:10,1.071,1.779,1.162,2.022,1.396,0.558,1.022,0.952,�쓌,0.9,��
2017/01/12,02:20,1.070,1.782,1.161,2.019,1.394,0.557,1.022,0.951,���k��,1.2,��
2017/01/12,02:30,1.072,1.779,1.160,2.022,1.395,0.559,1.022,0.951,���쓌,1.5,��
2017/01/12,02:40,1.071,1.777,1.163,2.019,1.390,0.557,1.023,0.950,��쓌,1.2,��
2017/01/12,02:50,1.071,1.782,1.162,2.017,1.392,0.559,1.022,0.950,��쓌,0.6,��
2017/01/12,03:00,1.069,1.781,1.161,2.018,1.393,0.558,1.024,0.952,��,1.5,��
2017/01/12,03:10,1.071,1.780,1.161,2.017,1.396,0.558,1.022,0.951,���쐼,1.5,��
2017/01/12,03:20,1.069,1.781,1.162,2.021,1.392,0.558,1.022,0.951,���k��,2.5,��
2017/01/12,03:30,1.071,1.778,1.161,2.018,1.392,0.557,1.022,0.951,�k��,3.6,��
2017/01/12,03:40,1.070,1.777,1.162,2.020,1.391,0.557,1.022,0.950,���k��,3.1,��
2017/01/12,03:50,1.069,1.778,1.161,2.021,1.391,0.557,1.021,0.950,���k��,3.9,��
2017/01/12,04:00,1.071,1.780,1.161,2.022,1.393,0.556,1.021,0.951,���k��,3.7,��
2017/01/12,04:10,1.073,1.779,1.160,2.018,1.391,0.558,1.022,0.951,��,3.7,��
2017/01/12,04:20,1.069,1.778,1.162,2.015,1.391,0.556,1.024,0.952,��,4.7,��
2017/01/12,04:30,1.070,1.777,1.160,2.021,1.393,0.557,1.023,0.951,��,5.1,��
2017/01/12,04:40,1.069,1.782,1.161,2.021,1.390,0.560,1.021,0.951,��,5.9,��
2017/01/12,04:50,1.067,1.782,1.161,2.021,1.392,0.557,1.024,0.953,��,5.6,��
2017/01/12,05:00,1.072,1.780,1.161,2.020,1.392,0.558,1.021,0.950,��,6.4,��
2017/01/12,05:10,1.068,1.780,1.160,2.018,1.391,0.557,1.022,0.951,���k��,7.0,��
2017/01/12,05:20,1.070,1.780,1.161,2.022,1.389,0.558,1.022,0.950,���k��,5.1,��
2017/01/12,05:30,1.069,1.779,1.160,2.020,1.389,0.556,1.021,0.950,���k��,3.3,��
2017/01/12,05:40,1.068,1.778,1.161,2.018,1.390,0.557,1.021,0.950,��,2.3,��
2017/01/12,05:50,1.069,1.780,1.161,2.023,1.390,0.559,1.023,0.952,�쐼,2.0,��
2017/01/12,06:00,1.068,1.777,1.160,2.021,1.388,0.557,1.022,0.949,�쐼,1.9,��
2017/01/12,06:10,1.069,1.780,1.161,2.017,1.389,0.558,1.022,0.950,��쐼,1.1,��
2017/01/12,06:20,1.069,1.778,1.161,2.017,1.388,0.558,1.023,0.950,��,1.1,��
2017/01/12,06:30,1.069,1.782,1.162,2.018,1.388,0.556,1.022,0.951,��쐼,1.4,��
2017/01/12,06:40,1.071,1.777,1.161,2.020,1.391,0.556,1.020,0.949,��쐼,0.9,��
2017/01/12,06:50,1.069,1.777,1.162,2.019,1.391,0.557,1.024,0.950,�쓌,0.9,��
2017/01/12,07:00,1.070,1.780,1.160,2.017,1.388,0.555,1.021,0.950,��,0.9,��
2017/01/12,07:10,1.068,1.777,1.161,2.020,1.387,0.557,1.023,0.951,��,1.5,��
2017/01/12,07:20,1.068,1.776,1.159,2.019,1.391,0.556,1.022,0.949,��,2.2,��
2017/01/12,07:30,1.069,1.775,1.160,2.017,1.389,0.557,1.022,0.950,��쐼,1.4,��
2017/01/12,07:40,1.069,1.777,1.159,2.021,1.388,0.558,1.024,0.950,��쐼,2.5,��
2017/01/12,07:50,1.071,1.778,1.160,2.019,1.388,0.557,1.021,0.950,�쐼,2.5,��
2017/01/12,08:00,1.069,1.775,1.160,2.018,1.388,0.556,1.023,0.949,�쐼,1.4,��
2017/01/12,08:10,1.071,1.777,1.163,2.019,1.388,0.558,1.022,0.950,��쐼,0.6,��
2017/01/12,08:20,1.071,1.776,1.164,2.020,1.392,0.556,1.022,0.951,-,CALM,��
2017/01/12,08:30,1.070,1.777,1.163,2.024,1.389,0.558,1.023,0.951,�k�k��,1.1,��
2017/01/12,08:40,1.070,1.780,1.165,2.021,1.390,0.558,1.023,0.951,�k�k��,1.7,��
2017/01/12,08:50,1.070,1.783,1.163,2.018,1.392,0.558,1.023,0.950,�k�k��,3.4,��
2017/01/12,09:00,1.071,1.787,1.166,2.019,1.391,0.559,1.025,0.953,�k�k��,4.3,��
2017/01/12,09:10,1.074,1.779,1.163,2.020,1.392,0.557,1.024,0.951,�k��,4.1,��
2017/01/12,09:20,1.074,1.779,1.161,2.022,1.392,0.559,1.025,0.953,���k��,3.5,��
2017/01/12,09:30,1.075,1.783,1.164,2.026,1.395,0.558,1.024,0.951,�k��,5.7,��
2017/01/12,09:40,1.074,1.784,1.165,2.022,1.396,0.559,1.025,0.952,���k��,5.7,��
2017/01/12,09:50,1.075,1.786,1.165,2.025,1.394,0.559,1.024,0.952,���k��,4.7,��
2017/01/12,10:00,1.076,1.788,1.167,2.021,1.395,0.559,1.023,0.954,���k��,4.8,��
2017/01/12,10:10,1.077,1.784,1.165,2.026,1.395,0.560,1.025,0.952,�k��,7.2,��
2017/01/12,10:20,1.076,1.781,1.167,2.023,1.399,0.560,1.023,0.953,���k��,6.0,��
2017/01/12,10:30,1.075,1.782,1.166,2.027,1.396,0.559,1.024,0.954,�k��,6.8,��
2017/01/12,10:40,1.076,1.787,1.166,2.026,1.398,0.556,1.024,0.954,�k��,5.3,��
2017/01/12,10:50,1.075,1.785,1.168,2.026,1.397,0.560,1.025,0.954,���k��,5.5,��
2017/01/12,11:00,1.078,1.785,1.168,2.024,1.402,0.559,1.024,0.951,�k��,3.4,��
2017/01/12,11:10,1.079,1.786,1.170,2.027,1.399,0.559,1.023,0.952,���k��,5.1,��
2017/01/12,11:20,1.082,1.789,1.165,2.026,1.402,0.561,1.025,0.955,�k��,6.7,��
2017/01/12,11:30,1.079,1.786,1.169,2.024,1.405,-,1.023,0.954,���k��,4.3,��
2017/01/12,11:40,1.078,1.786,1.168,2.027,1.404,-,1.027,0.954,���k��,6.3,��
2017/01/12,11:50,1.080,1.789,1.170,2.024,1.396,-,1.027,0.955,���k��,5.2,��
2017/01/12,12:00,1.080,1.786,1.174,2.028,1.401,-,1.028,0.954,�k��,4.5,��
2017/01/12,12:10,1.080,1.782,1.171,2.032,1.401,-,1.028,0.952,�k�k��,7.1,��
2017/01/12,12:20,1.083,1.785,1.171,2.028,1.404,-,1.026,0.955,�k�k��,9.0,��
2017/01/12,12:30,1.082,1.789,1.172,2.030,1.405,-,1.026,0.953,�k�k��,7.6,��
2017/01/12,12:40,1.081,1.788,1.171,2.030,1.404,-,1.027,0.954,�k��,6.7,��
2017/01/12,12:50,1.080,1.787,1.172,2.027,1.406,-,1.028,0.954,�k��,6.4,��
2017/01/12,13:00,1.079,1.787,1.172,2.032,1.405,-,1.026,0.954,�k�k��,6.9,��
2017/01/12,13:10,1.083,1.782,1.173,2.029,1.405,-,1.028,0.952,�k��,6.8,��
2017/01/12,13:20,1.084,1.785,1.174,2.031,1.406,-,1.027,0.954,�k��,6.5,��
2017/01/12,13:30,1.081,1.786,1.175,2.028,1.404,-,1.027,0.955,�k��,4.3,��
2017/01/12,13:40,1.082,1.794,1.175,2.028,1.405,-,1.027,0.956,�k�k��,5.8,��
2017/01/12,13:50,1.083,1.789,1.175,2.026,1.405,-,1.027,0.955,�k��,5.3,��
2017/01/12,14:00,1.083,1.800,1.173,2.030,1.407,-,1.029,0.955,�k��,6.1,��
2017/01/12,14:10,1.083,1.788,1.175,2.028,1.406,-,1.027,0.955,�k��,4.0,��
2017/01/12,14:20,1.081,1.791,1.171,2.028,1.405,-,1.027,0.954,�k��,5.7,��
2017/01/12,14:30,1.083,1.791,1.171,2.028,1.405,-,1.028,0.955,�k��,5.1,��
2017/01/12,14:40,1.080,1.791,1.172,2.029,1.403,-,1.027,0.956,�k��,4.5,��
2017/01/12,14:50,1.080,1.789,1.173,2.029,1.407,-,1.028,0.953,���k��,3.1,��
2017/01/12,15:00,1.080,1.790,1.171,2.027,1.405,-,1.028,0.955,�k��,5.6,��
2017/01/12,15:10,1.082,1.791,1.171,2.028,1.403,-,1.029,0.953,�k��,4.2,��
2017/01/12,15:20,1.082,1.790,1.172,2.028,1.405,-,1.028,0.954,�k��,5.2,��
2017/01/12,15:30,1.080,1.794,1.170,2.030,1.403,-,1.027,0.953,�k��,4.8,��
2017/01/12,15:40,1.082,1.792,1.171,2.029,1.403,-,1.027,0.953,�k�k��,5.0,��
2017/01/12,15:50,1.079,1.792,1.170,2.028,1.402,-,1.026,0.954,�k��,5.7,��
2017/01/12,16:00,1.080,1.795,1.171,2.030,1.405,-,1.028,0.953,�k��,4.8,��
2017/01/12,16:10,1.080,1.791,1.168,2.029,1.405,-,1.025,0.952,�k��,5.1,��
2017/01/12,16:20,1.080,1.792,1.170,2.029,1.408,0.560,1.026,0.953,�k��,3.5,��
2017/01/12,16:30,1.080,1.793,1.169,2.025,1.404,0.562,1.027,0.954,�k�k��,3.9,��
2017/01/12,16:40,1.080,1.790,1.170,2.028,1.405,0.561,1.025,0.954,�k�k��,3.6,��
2017/01/12,16:50,1.079,1.790,1.171,2.025,1.403,0.561,1.027,0.954,�k�k��,5.0,��
2017/01/12,17:00,1.079,1.788,1.170,2.025,1.405,0.560,1.026,0.952,�k�k��,5.3,��
2017/01/12,17:10,1.078,1.793,1.170,2.026,1.404,0.559,1.025,0.953,�k�k��,5.5,��
2017/01/12,17:20,1.078,1.792,1.171,2.027,1.406,0.561,1.026,0.953,�k�k��,6.5,��
2017/01/12,17:30,1.076,1.793,1.169,2.026,1.404,0.559,1.026,0.952,�k�k��,7.0,��
2017/01/12,17:40,1.080,1.790,1.167,2.023,1.404,0.561,1.026,0.953,�k�k��,6.6,��
2017/01/12,17:50,1.075,1.790,1.169,2.025,1.407,0.560,1.028,0.953,�k�k��,6.8,��
2017/01/12,18:00,1.077,1.791,1.166,2.028,1.404,0.560,1.026,0.953,�k�k��,6.6,��
2017/01/12,18:10,1.077,1.793,1.167,2.025,1.403,0.560,1.026,0.953,�k�k��,5.9,��
2017/01/12,18:20,1.077,1.790,1.169,2.027,1.405,0.558,1.027,0.954,�k�k��,6.1,��
2017/01/12,18:30,1.079,1.793,1.168,2.025,1.404,0.561,1.025,0.952,�k�k��,6.2,��
2017/01/12,18:40,1.075,1.791,1.168,2.025,1.405,0.559,1.027,0.952,�k�k��,6.5,��
2017/01/12,18:50,1.078,1.790,1.167,2.026,1.403,0.560,1.025,0.953,�k�k��,6.5,��
2017/01/12,19:00,1.075,1.793,1.167,2.024,1.404,0.558,1.026,0.954,�k�k��,6.2,��
2017/01/12,19:10,1.075,1.793,1.166,2.027,1.403,0.560,1.025,0.951,�k�k��,6.3,��
2017/01/12,19:20,1.076,1.790,1.167,2.025,1.404,0.559,1.027,0.955,�k�k��,6.3,��
2017/01/12,19:30,1.076,1.790,1.167,2.024,1.402,0.560,1.024,0.953,�k�k��,6.7,��
2017/01/12,19:40,1.077,1.789,1.167,2.027,1.404,0.560,1.026,0.951,�k�k��,8.0,��
2017/01/12,19:50,1.074,1.789,1.167,2.024,1.403,0.559,1.025,0.952,�k�k��,7.7,��
2017/01/12,20:00,1.079,1.789,1.167,2.027,1.402,0.559,1.026,0.952,�k�k��,7.1,��
2017/01/12,20:10,1.075,1.792,1.169,2.026,1.404,0.562,1.025,0.954,�k��,6.2,��
2017/01/12,20:20,1.077,1.791,1.167,2.026,1.402,0.560,1.025,0.952,���k��,1.7,��
2017/01/12,20:30,1.078,1.789,1.168,2.024,1.404,0.560,1.025,0.954,���k��,1.7,��
2017/01/12,20:40,1.077,1.790,1.168,2.024,1.405,0.562,1.023,0.954,���k��,2.0,��
2017/01/12,20:50,1.077,1.789,1.168,2.026,1.405,0.560,1.025,0.952,�쐼,0.9,��
2017/01/12,21:00,1.079,1.791,1.168,2.023,1.403,0.560,1.026,0.952,���k��,1.7,��
2017/01/12,21:10,1.079,1.791,1.166,2.025,1.402,0.558,1.025,0.951,-,CALM,��
2017/01/12,21:20,1.079,1.790,1.168,2.022,1.403,0.560,1.026,0.952,��쓌,2.8,��
2017/01/12,21:30,1.078,1.787,1.168,2.026,1.401,0.560,1.025,0.954,��쐼,3.5,��
2017/01/12,21:40,1.078,1.788,1.167,2.024,1.402,0.561,1.024,0.954,��쐼,3.8,��
2017/01/12,21:50,1.077,1.788,1.167,2.025,1.403,0.561,1.025,0.953,��쐼,3.6,��
2017/01/12,22:00,1.078,1.789,1.168,2.025,1.403,0.562,1.026,0.953,��쐼,2.9,��
2017/01/12,22:10,1.078,1.790,1.169,2.025,1.404,0.560,1.026,0.955,��,2.2,��
2017/01/12,22:20,1.079,1.791,1.167,2.024,1.405,0.560,1.024,0.953,��,4.4,��
2017/01/12,22:30,1.079,1.788,1.168,2.029,1.402,0.561,1.025,0.953,��,4.2,��
2017/01/12,22:40,1.079,1.789,1.168,2.025,1.403,0.560,1.024,0.953,��,3.8,��
2017/01/12,22:50,1.077,1.787,1.167,2.025,1.402,0.561,1.025,0.954,��쐼,4.0,��
2017/01/12,23:00,1.081,1.790,1.167,2.028,1.403,0.561,1.025,0.954,�쐼,5.5,��
2017/01/12,23:10,1.079,1.789,1.168,2.026,1.403,0.562,1.026,0.952,�쐼,4.5,��
2017/01/12,23:20,1.081,1.790,1.169,2.027,1.405,0.561,1.026,0.954,�쐼,3.8,��
2017/01/12,23:30,1.080,1.790,1.168,2.027,1.404,0.561,1.027,0.952,�쐼,2.8,�L
2017/01/12,23:40,1.082,1.790,1.169,2.029,1.402,0.561,1.028,0.954,��,1.7,��
2017/01/12,23:50,1.081,1.794,1.171,2.031,1.404,0.563,1.027,0.952,���쐼,2.6,��
